Location: Be Tobo
(6.6442°N, 10.6239°W)
Time: 17:05:00
(UTC+00:00)

Intelsat 5-3 Rocket - Pass Details

Date: 18 September 2020
Orbit: 281 x 6111 km, 23.6° (Epoch: 24 October)

Event Time Altitude Azimuth Distance (km) Brightness Sun altitude
Rises 20:07:00 0° 305° (NW) 2,859 6.9 -22.3°
Reaches altitude 10° 20:08:40 10° 311° (NW) 2,249 6.1 -22.7°
Maximum altitude 20:13:47 55° 29° (NNE) 1,482 4.2 -24.0°
Enters shadow 20:17:07 39° 82° (E) 2,292 4.9 -24.8°
